| time (UTC) | temp F | wind direction | speed knots | gust knots | rain 1hr in | rain 24hr in | rain mn in | humidity % | barometer mb |
| 20260504021743 | 66 | 290 | 14.8 | 20.0 | 0.00 | 0.00 | 0.00 | 31 | 1002.3 |
| 20260504020745 | 67 | 288 | 18.2 | 20.0 | 0.00 | 0.00 | 0.00 | 31 | 1002.2 |
| 20260504015806 | 68 | 294 | 15.6 | 20.0 | 0.00 | 0.00 | 0.00 | 30 | 1002.2 |
| 20260504014805 | 68 | 294 | 16.5 | 20.0 | 0.00 | 0.00 | 0.00 | 30 | 1002.0 |
| 20260504013753 | 69 | 277 | 17.4 | 21.7 | 0.00 | 0.00 | 0.00 | 30 | 1002.0 |
| 20260504012754 | 70 | 298 | 14.8 | 24.3 | 0.00 | 0.00 | 0.00 | 30 | 1002.1 |
| 20260504011816 | 70 | 292 | 22.6 | 24.3 | 0.00 | 0.00 | 0.00 | 29 | 1002.0 |
| 20260504010755 | 71 | 293 | 18.2 | 27.8 | 0.00 | 0.00 | 0.00 | 29 | 1002.0 |
| 20260504005803 | 72 | 279 | 17.4 | 27.8 | 0.00 | 0.00 | 0.00 | 28 | 1001.9 |
| 20260504004801 | 73 | 271 | 16.5 | 29.5 | 0.00 | 0.00 | 0.00 | 27 | 1002.0 |
| 20260504003802 | 73 | 294 | 25.2 | 28.7 | 0.00 | 0.00 | 0.00 | 27 | 1002.1 |
| 20260504002741 | 73 | 289 | 20.0 | 31.3 | 0.00 | 0.00 | 0.00 | 27 | 1002.0 |
| 20260504001742 | 73 | 279 | 19.1 | 28.7 | 0.00 | 0.00 | 0.00 | 28 | 1002.1 |
| 20260504000747 | 74 | 280 | 20.0 | 27.8 | 0.00 | 0.00 | 0.00 | 28 | 1002.1 |
| 20260503235748 | 74 | 257 | 21.7 | 26.1 | 0.00 | 0.00 | 0.00 | 28 | 1002.0 |
| 20260503234747 | 74 | 296 | 21.7 | 31.3 | 0.00 | 0.00 | 0.00 | 26 | 1002.1 |
| 20260503233751 | 75 | 279 | 17.4 | 28.7 | 0.00 | 0.00 | 0.00 | 26 | 1002.0 |
| 20260503232752 | 75 | 286 | 21.7 | 29.5 | 0.00 | 0.00 | 0.00 | 25 | 1001.9 |
| 20260503231755 | 76 | 268 | 26.9 | 30.4 | 0.00 | 0.00 | 0.00 | 23 | 1002.0 |
| 20260503230817 | 77 | 273 | 20.0 | 27.8 | 0.00 | 0.00 | 0.00 | 22 | 1002.0 |
| 20260503225817 | 77 | 290 | 19.1 | 27.8 | 0.00 | 0.00 | 0.00 | 21 | 1002.0 |
| 20260503224757 | 77 | 255 | 20.0 | 24.3 | 0.00 | 0.00 | 0.00 | 21 | 1001.8 |
| 20260503223757 | 77 | 279 | 20.0 | 26.9 | 0.00 | 0.00 | 0.00 | 22 | 1002.2 |
| 20260503222800 | 77 | 250 | 22.6 | 26.9 | 0.00 | 0.00 | 0.00 | 22 | 1002.3 |
| 20260503221800 | 77 | 261 | 13.9 | 24.3 | 0.00 | 0.00 | 0.00 | 23 | 1002.6 |
| 20260503220759 | 76 | 237 | 24.3 | 27.8 | 0.00 | 0.00 | 0.00 | 22 | 1002.7 |
| 20260503215821 | 76 | 236 | 22.6 | 28.7 | 0.00 | 0.00 | 0.00 | 22 | 1002.9 |
| 20260503214746 | 77 | 259 | 15.6 | 25.2 | 0.00 | 0.00 | 0.00 | 24 | 1002.9 |
| 20260503213745 | 76 | 251 | 22.6 | 26.1 | 0.00 | 0.00 | 0.00 | 23 | 1003.3 |
| 20260503212746 | 77 | 277 | 20.9 | 26.1 | 0.00 | 0.00 | 0.00 | 23 | 1003.5 |
| 20260503211807 | 76 | 224 | 19.1 | 25.2 | 0.00 | 0.00 | 0.00 | 25 | 1003.8 |
| 20260503210748 | 76 | 259 | 25.2 | 28.7 | 0.00 | 0.00 | 0.00 | 25 | 1003.9 |
| 20260503205752 | 76 | 246 | 12.2 | 26.9 | 0.00 | 0.00 | 0.00 | 24 | 1004.1 |
| 20260503204755 | 75 | 245 | 20.0 | 25.2 | 0.00 | 0.00 | 0.00 | 25 | 1004.4 |
| 20260503203754 | 76 | 253 | 17.4 | 25.2 | 0.00 | 0.00 | 0.00 | 24 | 1004.5 |
| 20260503202819 | 75 | 265 | 13.0 | 25.2 | 0.00 | 0.00 | 0.00 | 25 | 1004.5 |
| 20260503201742 | 74 | 256 | 11.3 | 21.7 | 0.00 | 0.00 | 0.00 | 26 | 1004.8 |
| 20260503200743 | 74 | 224 | 9.6 | 20.0 | 0.00 | 0.00 | 0.00 | 28 | 1005.0 |
| 20260503195743 | 75 | 223 | 10.4 | 20.9 | 0.00 | 0.00 | 0.00 | 26 | 1005.3 |
| 20260503194744 | 74 | 236 | 13.0 | 18.2 | 0.00 | 0.00 | 0.00 | 28 | 1005.4 |
| 20260503193746 | 73 | 217 | 13.9 | 20.0 | 0.00 | 0.00 | 0.00 | 29 | 1005.9 |
| 20260503192753 | 73 | 240 | 13.0 | 27.8 | 0.00 | 0.00 | 0.00 | 29 | 1006.1 |
| 20260503191754 | 72 | 244 | 12.2 | 16.5 | 0.00 | 0.00 | 0.00 | 28 | 1006.3 |
| 20260503190754 | 72 | 241 | 4.3 | 16.5 | 0.00 | 0.00 | 0.00 | 30 | 1006.6 |
| 20260503185755 | 72 | 216 | 13.9 | 15.6 | 0.00 | 0.00 | 0.00 | 30 | 1006.7 |
| 20260503184741 | 72 | 264 | 13.9 | 18.2 | 0.00 | 0.00 | 0.00 | 31 | 1007.2 |
| 20260503183742 | 71 | 212 | 5.2 | 16.5 | 0.00 | 0.00 | 0.00 | 31 | 1007.5 |
| 20260503182806 | 70 | 271 | 12.2 | 17.4 | 0.00 | 0.00 | 0.00 | 30 | 1007.8 |
| 20260503181805 | 70 | 254 | 13.0 | 15.6 | 0.00 | 0.00 | 0.00 | 33 | 1008.1 |
| 20260503180744 | 70 | 285 | 11.3 | 20.0 | 0.00 | 0.00 | 0.00 | 33 | 1008.2 |
| 20260503175748 | 69 | 258 | 11.3 | 16.5 | 0.00 | 0.00 | 0.00 | 32 | 1008.6 |
| 20260503174749 | 69 | 206 | 13.0 | 16.5 | 0.00 | 0.00 | 0.00 | 31 | 1008.7 |
| 20260503173748 | 69 | 238 | 10.4 | 16.5 | 0.00 | 0.00 | 0.00 | 32 | 1008.8 |
| 20260503172749 | 69 | 264 | 12.2 | 16.5 | 0.00 | 0.00 | 0.00 | 36 | 1008.9 |
| 20260503171753 | 68 | 273 | 13.0 | 16.5 | 0.00 | 0.00 | 0.00 | 39 | 1009.0 |
| 20260503170754 | 68 | 251 | 8.7 | 14.8 | 0.00 | 0.00 | 0.00 | 39 | 1009.1 |
| 20260503150758 | 55 | 211 | 0.9 | 3.5 | 0.00 | 0.00 | 0.00 | 52 | 1011.3 |
| 20260503130749 | 38 | 317 | 0.0 | 5.2 | 0.00 | 0.00 | 0.00 | 79 | 1012.2 |
| 20260503110743 | 33 | 317 | 0.0 | 1.7 | 0.00 | 0.00 | 0.00 | 81 | 1012.7 |
| 20260503080746 | 39 | 302 | 0.9 | 1.7 | 0.00 | 0.00 | 0.00 | 75 | 1013.3 |
| 20260503072738 | 40 | 301 | 0.0 | 2.6 | 0.00 | 0.00 | 0.00 | 75 | 1013.5 |
| 20260503071746 | 40 | 301 | 2.6 | 3.5 | 0.00 | 0.00 | 0.00 | 75 | 1013.5 |
| 20260503070746 | 40 | 302 | 2.6 | 3.5 | 0.00 | 0.00 | 0.00 | 75 | 1013.6 |
| 20260503054752 | 42 | 301 | 1.7 | 2.6 | 0.00 | 0.00 | 0.00 | 71 | 1013.6 |
| 20260503053755 | 43 | 302 | 0.9 | 2.6 | 0.00 | 0.00 | 0.00 | 71 | 1013.6 |
| 20260503052755 | 43 | 302 | 1.7 | 3.5 | 0.00 | 0.00 | 0.00 | 72 | 1013.7 |
| 20260503051743 | 43 | 302 | 0.0 | 0.9 | 0.00 | 0.00 | 0.00 | 70 | 1013.7 |
| 20260503050807 | 44 | 301 | 0.9 | 1.7 | 0.00 | 0.00 | 0.00 | 69 | 1013.7 |
| 20260503045746 | 44 | 301 | 0.0 | 2.6 | 0.00 | 0.00 | 0.00 | 69 | 1013.7 |
| 20260503044809 | 46 | 302 | 0.9 | 0.9 | 0.00 | 0.00 | 0.00 | 65 | 1013.7 |
| 20260503043809 | 46 | 302 | 0.0 | 1.7 | 0.00 | 0.00 | 0.00 | 65 | 1013.8 |
| 20260503042808 | 46 | 302 | 0.9 | 2.6 | 0.00 | 0.00 | 0.00 | 66 | 1013.7 |
| 20260503041751 | 47 | 302 | 1.7 | 2.6 | 0.00 | 0.00 | 0.00 | 66 | 1013.6 |
| 20260503040750 | 47 | 302 | 1.7 | 1.7 | 0.00 | 0.00 | 0.00 | 63 | 1013.7 |
| 20260503035816 | 48 | 301 | 0.9 | 2.6 | 0.00 | 0.00 | 0.00 | 62 | 1013.6 |
| 20260503034755 | 49 | 302 | 1.7 | 1.7 | 0.00 | 0.00 | 0.00 | 62 | 1013.6 |
| 20260503033742 | 50 | 302 | 0.9 | 2.6 | 0.00 | 0.00 | 0.00 | 60 | 1013.6 |
| 20260503032744 | 51 | 302 | 0.9 | 0.9 | 0.00 | 0.00 | 0.00 | 58 | 1013.6 |
| 20260503031744 | 52 | 302 | 0.0 | 1.7 | 0.00 | 0.00 | 0.00 | 56 | 1013.7 |
| 20260503030745 | 52 | 301 | 0.0 | 0.9 | 0.00 | 0.00 | 0.00 | 55 | 1013.6 |
| 20260503025746 | 52 | 302 | 0.0 | 1.7 | 0.00 | 0.00 | 0.00 | 56 | 1013.6 |
| 20260503024750 | 54 | 302 | 1.7 | 1.7 | 0.00 | 0.00 | 0.00 | 51 | 1013.5 |
| 20260503023814 | 54 | 302 | 0.0 | 1.7 | 0.00 | 0.00 | 0.00 | 50 | 1013.3 |
| 20260503022757 | 55 | 302 | 1.7 | 1.7 | 0.00 | 0.00 | 0.00 | 50 | 1013.3 |